Location: Jackson Park
(37.2862°N, 79.9123°W)
Time: 19:56:02
(UTC+00:00)

Vanguard 2 Rocket - Pass Details

Date: 13 May 2026
Orbit: 553 x 3286 km, 32.9° (Epoch: 6 June)

Event Time Altitude Azimuth Distance (km) Brightness Sun altitude
Rises 19:43:49 0° 271° (W) 6,418 11.8 52.7°
Reaches altitude 10° 19:47:39 10° 270° (W) 5,657 11.7 52.0°
Maximum altitude 20:06:26 74° 190° (S) 3,367 10.8 48.4°
Drops below altitude 10° 20:25:10 10° 110° (ESE) 5,644 10.7 44.8°
Sets 20:28:58 0° 108° (ESE) 6,403 10.8 44.0°
